TITAN 3C TRANSTAGE DEB, 1684

Orbit data source: Space-Track

TITAN 3C TRANSTAGE DEB, 1684 is space debris in LEO originally from a launch on Fri, 15 Oct 1965 UTC launched from the Air Force Eastern Test Range (AFETR). Debris objects in space refer to the collection of defunct objects orbiting the Earth. Examples of debris include non-operational satellites, rocket bodies, and fragments generated from explosions, collisions, or faulty payload assembly.

Loading next visibility...
Identifier
1684, 1965-082AX
Orbit
LEO
Country
Flag of USUS
Related business
Manufacturer
Unknown
Mission
Spacecraft
Bus & Motor
Unknown
Mass
Unknown
Launch date (UTC)
1965-10-15 (60 years ago)
Launch vehicle
Unknown
Launch site
Air Force Eastern Test Range (AFETR)
Object type
Payload
Rocket body
Debris
Shape & HBR
Unknown shape, 0.9 m
Radar Cross Section
Large (>1 m²)

Expand to show TLE details & history
Last TLE update: 9 hours ago

TLE from 9 hours ago
0 TITAN 3C TRANSTAGE DEB
1  1684U 65082AX  25296.66516645  .00004201  00000-0  11127-2 0  9994
2  1684  32.2131  86.1755 0168247 171.5591 188.7933 14.39528749108428
Epoch: 2025-10-23T15:57Z
TLE epoch observation values (Epoch: 2025-10-23T15:57:50.381Z)
Latitude
-0.00001°
Longitude
174.39439°
Altitude
877.431 km
Speed
7.354 km/s
True Right ascension
05h 44m 42s
True Declination
0° 00' 00"
Sunlit
Object was in full shadow at epoch
Visualization orbit readout
Latitude
Unknown
Longitude
Unknown
Altitude
Unknown
Speed
Unknown
Apparent Right ascension
Unknown
Apparent Declination
Unknown
Sunlit
N/A
Visualization observer readout
Local Sidereal Time
20:23:59
Azimuth
Unknown
Elevation
Unknown
Doppler factor
Unknown
Orbital elements
Apogee altitude
883.761 km
Perigee altitude
643.445 km
Semi-major axis
7,141.74 km
Eccentricity
0.01682
Inclination
32.2131°
RAAN
86.1755°
Arg. of periapsis
171.5591°
True anomaly
188.50458°
Mean anomaly
188.7933°
Eccentric anomaly
188.64835°
Mean motion
3.59614 °/min
Orbital period
100.11 mins
BSTAR
0.0011127

Documentation

Showing up to 5 results
|